SCP
1 1 1 1 1 1 1 1 1 1 1 1 1 1 1 1 1 1 1 1 1 1 1 1 1 0 1 1 1 1 1 0 0 0 0 0 0 0 0 0 0 0 0
1 1 1 1 1 1 1 1 1 1 1 1 1 1 1 1 1 1 1 1 1 1 1 1 1 1 1 1 1 1 1 1 1 0 0 0 0 0 0 0 0 0 0
1 1 1 1 1 1 1 1 1 1 1 1 1 1 1 1 1 1 1 1 1 1 1 1 1 1 1 1 1 1 1 1 1 1 0 0 0 0 0 0 0 0 0
1 1 1 1 1 1 1 1 1 1 1 1 1 1 1 1 1 1 2 1 1 1 1 2 2 1 1 1 1 1 1 1 1 1 1 0 0 0 0 0 0 0 0
1 1 1 1 1 1 1 1 1 2 2 2 1 1 1 1 1 2 2 2 1 1 1 1 2 2 1 1 1 1 1 1 1 1 1 1 1 0 0 0 0 0 0
0 1 1 1 1 1 1 1 1 1 2 2 2 1 1 1 1 2 2 2 2 2 1 2 2 2 2 1 1 1 1 1 1 1 1 1 1 1 1 1 0 0 0
1 1 1 1 1 1 1 1 1 1 2 2 2 2 2 1 1 2 2 2 1 2 2 2 2 2 2 2 2 2 2 1 1 1 1 1 1 1 1 1 1 0 0
1 1 1 0 0 1 1 1 1 1 1 2 2 2 2 2 2 2 2 2 2 2 2 2 2 2 2 2 2 2 2 1 1 1 1 1 1 1 1 1 1 1 0
1 1 0 0 0 0 0 0 1 1 1 1 1 1 2 2 2 2 2 2 2 2 2 2 2 2 2 2 2 2 2 1 1 1 1 1 1 1 1 1 1 1 1
0 0 0 0 0 0 0 1 1 1 1 1 1 1 1 1 1 1 1 1 1 1 1 1 1 2 2 2 2 2 1 1 1 1 1 1 1 1 1 1 1 1 1
0 0 0 0 0 0 0 1 1 1 1 1 1 1 1 1 1 1 1 1 1 1 1 1 1 2 2 2 2 2 1 1 1 1 1 1 1 2 2 2 1 1 1
0 0 0 0 0 0 0 1 1 1 1 1 1 1 1 1 1 1 1 1 1 1 1 1 1 1 1 1 1 1 1 1 1 1 1 1 1 2 2 2 2 2 1
0 0 0 0 0 0 0 0 1 1 1 1 1 1 1 1 0 0 0 0 1 1 1 1 1 1 1 1 1 1 1 1 1 1 1 1 1 1 1 1 2 2 2
0 0 0 0 0 0 0 0 0 0 1 1 1 1 1 1 1 0 0 0 0 0 0 1 1 1 1 1 1 1 1 1 1 0 1 1 1 1 1 1 1 1 2
0 0 0 0 0 0 0 0 0 0 0 0 0 1 1 1 0 0 0 0 0 0 0 0 1 1 1 1 1 1 1 1 0 0 0 1 1 1 1 1 1 1 1
0 0 0 0 0 0 0 0 0 0 0 0 0 0 0 0 0 0 0 0 0 0 0 0 0 1 1 1 1 1 1 1 0 0 0 0 0 0 1 1 1 1 1
0 0 0 0 0 0 0 0 0 0 0 0 0 0 0 0 0 0 0 0 0 0 0 0 0 0 0 1 1 1 1 1 1 0 0 0 0 0 0 0 0 0 0
0 0 0 0 0 0 0 0 0 0 0 0 0 0 0 0 0 0 0 0 0 0 0 0 0 0 0 0 1 1 1 1 1 0 0 0 0 0 0 0 0 0 0
0 0 0 0 0 0 0 0 0 0 0 0 0 0 0 0 0 0 0 0 0 0 0 0 0 0 0 0 1 1 1 1 1 1 0 0 0 0 0 0 0 0 0
0 0 0 0 0 0 0 0 0 0 0 0 0 0 0 0 0 0 0 0 0 0 0 0 0 0 0 0 0 1 1 1 1 1 1 1 0 0 0 0 0 0 0
1 0 0 0 0 0 0 0 0 0 0 0 0 0 0 0 0 0 0 0 0 0 0 0 0 0 0 0 0 1 1 1 1 1 1 1 1 1 1 1 0 0 0
1 1 0 0 0 0 0 0 0 0 0 0 0 0 0 0 0 0 0 0 0 0 0 0 0 0 0 0 0 1 1 1 1 1 1 1 1 2 2 1 0 0 0
1 1 0 0 0 0 0 0 0 0 0 0 0 0 0 0 0 0 0 0 0 0 0 0 0 0 0 0 0 1 1 1 1 1 1 1 1 2 2 1 1 0 0
1 1 0 0 0 0 0 0 0 0 0 0 0 0 0 0 0 0 0 0 0 0 0 0 0 0 0 0 0 1 1 1 1 1 1 1 1 1 1 1 1 0 0
1 0 0 0 0 0 0 0 0 0 0 0 0 0 0 0 0 0 0 0 0 0 0 0 0 0 0 0 0 1 1 1 1 1 2 2 1 1 1 1 1 0 0
1 0 0 1 1 1 0 0 0 0 0 0 0 0 0 0 0 0 0 0 0 0 0 0 0 0 0 0 0 1 1 1 1 1 2 2 1 1 1 1 1 1 0
Wind_Speed
1 1 1 1 2 2 3 3 4 4 4 5 5 6 6 6 5 5 5 11 11 11 12 12 13 13 13 13 12 12 12 11 11 10 10 10 11 11 11 11 10 10 9
0 1 1 1 2 2 2 3 4 4 4 4 5 5 6 6 6 6 5 8 12 11 12 14 14 14 14 14 13 13 12 12 11 11 10 10 10 10 11 11 11 10 9
1 0 0 1 1 1 2 3 4 3 4 5 5 5 5 6 5 5 5 4 7 12 13 14 15 14 14 14 14 14 13 12 12 12 11 10 10 10 10 11 11 10 9
1 0 0 1 1 1 1 2 3 3 3 3 3 4 4 4 6 6 6 6 5 6 11 14 14 13 15 15 15 15 14 13 13 13 12 12 12 11 11 11 11 10 10
1 1 1 2 1 1 1 2 1 2 2 3 3 4 4 4 5 6 6 6 6 6 6 10 13 13 15 16 16 16 16 15 14 15 14 14 13 12 12 12 11 11 11
2 1 2 2 2 1 1 1 1 1 2 2 4 3 3 3 4 5 6 6 6 8 8 8 8 10 15 15 15 16 17 17 16 16 16 15 15 14 13 13 12 12 12
3 1 2 2 1 2 2 1 1 2 2 2 3 3 4 4 3 3 4 4 6 7 7 7 7 6 8 15 15 15 16 17 17 17 17 16 16 15 14 14 14 13 13
2 2 2 1 1 1 1 2 2 2 1 1 3 4 3 4 4 2 2 3 4 4 6 7 7 7 7 6 9 14 16 17 18 19 18 17 17 16 16 16 15 14 14
3 3 2 2 1 1 2 2 2 2 2 1 2 4 4 2 1 3 2 1 2 2 3 3 6 6 8 6 6 11 13 14 15 18 18 18 17 17 17 17 17 16 16
3 3 2 2 2 2 2 1 2 2 2 2 0 1 3 4 4 1 2 2 2 2 2 3 3 4 5 5 6 7 10 11 13 16 17 18 18 18 18 19 20 19 18
2 2 2 2 2 2 3 3 2 3 3 3 3 2 1 2 4 4 3 2 2 2 2 2 2 3 4 5 5 4 6 9 11 13 15 16 17 18 19 20 21 21 21
2 2 2 1 1 2 2 2 2 1 2 3 4 3 3 3 3 3 4 4 3 2 2 2 3 2 2 3 3 1 4 6 8 11 13 14 16 18 19 20 22 22 22
2 3 1 1 1 1 1 2 1 3 2 2 3 3 3 3 3 4 5 4 4 3 3 3 2 2 3 2 1 0 5 5 6 8 10 11 13 15 16 18 20 22 22
2 2 0 0 1 1 1 1 2 1 1 2 3 3 4 3 3 4 5 5 6 4 4 3 2 2 1 2 1 3 4 5 6 7 8 10 11 12 13 14 16 18 19
1 2 0 0 0 1 1 3 1 2 2 3 3 3 4 3 3 4 4 5 6 7 5 2 3 1 2 2 1 4 5 3 5 7 8 9 10 11 12 13 14 15 16
1 1 1 1 1 1 1 3 3 1 3 3 3 4 5 5 4 4 4 5 5 6 7 4 3 3 4 5 3 5 6 5 9 9 9 9 9 9 10 12 13 14 16
2 2 1 1 1 2 2 2 3 3 4 4 4 4 5 5 6 6 5 5 5 6 7 7 5 4 4 7 6 6 7 7 7 10 10 9 10 10 10 11 13 14 15
3 2 2 2 2 2 2 3 4 3 4 4 5 5 6 5 5 7 6 7 6 6 8 9 7 6 6 7 7 7 8 7 7 7 10 10 11 11 11 12 12 13 14
3 3 2 3 2 2 3 3 4 4 4 5 5 5 6 6 7 6 6 7 6 6 7 8 8 6 6 6 7 8 9 7 9 8 10 13 13 13 13 13 13 13 14
4 3 3 3 3 3 3 3 4 4 5 5 5 6 6 6 7 7 7 7 7 8 8 8 8 7 7 7 7 8 8 7 7 8 7 7 9 13 15 15 15 15 15
4 4 4 4 4 4 3 3 4 5 5 6 6 6 7 5 6 7 8 7 7 7 8 8 8 8 7 6 7 7 8 7 8 8 8 8 8 9 10 14 17 16 15
4 4 5 5 5 3 3 0 6 7 6 7 7 7 7 7 8 11 11 10 10 10 10 9 9 9 9 9 7 8 8 9 9 6 7 8 8 9 8 9 9 13 15
5 5 5 5 5 3 4 4 6 8 8 7 8 8 8 6 5 8 9 13 14 15 14 12 13 12 11 9 9 10 9 10 10 8 8 10 9 10 9 8 8 11 13
6 6 6 6 6 5 6 7 6 9 9 8 8 8 8 9 7 7 9 10 10 10 11 12 12 12 12 10 10 11 11 11 12 10 10 11 10 10 9 8 9 12 13
6 7 7 7 7 6 7 8 8 8 7 8 8 8 8 9 3 3 9 11 11 10 10 12 12 12 12 11 10 10 11 10 11 10 8 10 11 10 9 9 9 13 14
7 7 7 7 8 8 6 9 9 8 7 7 7 7 8 9 5 5 9 10 11 10 10 9 10 13 14 14 15 13 12 11 11 10 8 8 10 9 10 9 8 7 9
Wind_Direction
202 182 203 261 270 256 220 220 231 224 226 230 239 234 242 245 250 238 159 169 189 201 198 198 200 196 193 191 189 187 186 185 182 178 177 175 173 171 169 166 163 162 160
182 202 203 237 275 281 277 255 246 237 236 236 237 236 243 243 239 239 223 175 189 201 203 201 205 205 199 197 197 195 194 193 189 185 184 183 181 178 177 174 172 170 168
89 240 239 231 329 281 256 252 253 240 233 228 233 235 238 247 244 237 237 213 196 198 205 208 207 208 204 202 202 201 199 197 193 191 191 189 187 184 183 182 180 178 175
70 264 335 25 337 278 260 246 252 247 244 245 241 243 238 240 242 235 234 226 225 214 201 208 210 206 207 207 207 206 205 204 200 197 196 194 193 190 189 189 187 184 182
88 79 42 40 295 285 279 278 269 277 258 253 243 232 237 236 242 241 239 237 232 231 215 197 208 210 209 211 212 211 209 209 208 204 202 202 201 197 194 194 193 190 189
85 65 98 46 324 311 322 321 287 283 281 274 270 258 244 239 236 236 240 233 225 228 222 212 204 211 211 211 214 215 214 212 210 209 209 208 208 203 200 198 198 196 195
93 65 66 88 359 48 11 331 287 233 261 289 263 243 218 218 227 230 233 244 232 230 228 218 212 214 207 208 212 216 217 217 213 212 212 212 211 208 204 203 203 202 201
80 100 53 57 58 72 60 16 342 313 339 331 298 276 239 194 194 205 221 228 245 240 229 220 216 212 220 209 204 212 218 220 219 216 213 213 213 210 209 209 208 207 205
76 49 60 27 20 348 58 18 345 338 330 333 337 308 293 279 175 161 190 206 240 249 245 241 228 221 222 222 214 208 215 221 222 222 219 216 215 212 211 213 212 211 210
83 78 62 52 8 20 44 331 41 326 305 295 236 322 326 339 304 247 188 177 195 234 244 254 247 230 230 228 218 209 207 219 224 225 224 221 219 217 215 215 216 215 213
96 82 73 61 33 20 30 10 7 334 318 317 318 309 286 254 266 284 282 264 233 230 233 246 246 248 242 236 232 216 207 217 223 227 228 225 224 222 219 219 221 221 219
120 93 86 54 6 21 26 359 337 329 340 337 318 311 300 296 296 289 280 271 269 265 272 283 263 244 242 245 232 207 217 219 226 230 232 230 226 226 225 223 224 226 225
131 97 49 24 10 18 343 338 321 338 326 319 302 306 309 306 311 302 295 293 288 272 251 244 244 249 250 243 203 301 219 214 226 232 234 234 230 227 227 226 226 227 228
73 81 54 15 356 326 315 327 290 300 309 297 301 312 298 298 302 296 296 298 288 274 246 242 252 234 253 254 115 252 245 200 225 236 237 237 236 231 228 227 227 227 227
133 131 167 291 328 324 318 292 319 308 296 283 284 263 278 292 278 285 286 288 294 294 284 237 250 243 259 267 225 264 270 208 225 238 241 241 238 234 229 226 228 229 229
140 205 241 249 256 266 272 283 272 281 280 279 293 311 300 293 300 284 281 278 278 287 292 297 283 289 309 299 260 278 272 233 230 231 236 240 242 240 235 232 231 230 229
193 222 237 252 258 261 272 281 294 287 280 285 282 279 281 299 295 292 278 273 270 272 279 283 281 275 273 279 288 284 274 263 245 212 223 235 242 243 242 239 236 234 232
217 215 233 245 257 261 270 277 283 291 289 288 289 291 287 282 281 280 286 282 278 279 276 283 285 279 271 270 272 274 273 268 270 217 212 229 235 238 239 240 239 236 234
222 227 233 246 260 269 270 276 281 284 287 289 290 288 288 287 281 283 282 280 279 272 272 277 278 280 275 273 276 268 267 265 268 249 217 221 227 232 236 237 237 236 234
221 229 239 248 256 262 264 271 274 277 281 284 283 283 282 282 282 285 275 269 273 279 273 271 274 273 269 267 267 269 267 255 259 268 262 247 228 225 231 232 232 233 232
223 224 235 240 248 250 260 288 287 276 277 279 277 273 273 277 298 287 291 295 287 277 276 272 274 274 272 274 274 279 279 279 266 261 264 258 243 237 229 227 228 230 229
230 235 241 246 251 260 105 296 286 290 284 278 279 279 273 240 235 231 245 261 275 278 283 286 281 280 282 280 280 280 281 279 276 265 266 267 263 259 253 249 222 213 224
226 235 242 247 252 232 181 223 251 276 279 281 281 280 280 284 262 265 240 228 240 241 247 268 280 283 286 284 286 281 275 279 282 289 283 274 268 264 260 253 214 214 224
232 236 243 248 254 238 195 221 241 256 268 274 274 274 276 281 282 284 281 275 271 257 242 242 259 268 274 283 281 276 279 275 268 260 258 267 268 266 264 260 218 214 224
234 237 238 244 251 243 204 214 237 263 262 268 270 270 271 273 270 257 270 274 276 275 254 237 249 262 273 274 274 275 269 268 270 267 253 259 267 270 267 262 243 214 220
238 244 240 243 249 254 209 205 223 261 270 272 266 259 241 245 260 231 262 271 275 280 288 277 248 244 249 248 236 242 257 262 267 270 264 259 267 271 271 259 253 238 228